Weather History for PAKN - December, 2012

Change the Weather History Date:

Thursday, December 13, 2012

  Actual Average Record
Temperature  
Mean Temperature 33 °F 19 °F  
Max Temperature 35 °F 27 °F 44 °F (1985)
Min Temperature 31 °F 11 °F -36 °F (1999)
Degree Days  
Heating Degree Days 32 46  
Month to date heating degree days 678 591  
Since 1 July heating degree days 4522 3966  
Cooling Degree Days 0    
Month to date cooling degree days 0  
Year to date cooling degree days 0  
Moisture  
Dew Point 33 °F    
Average Humidity 0    
Maximum Humidity 0    
Minimum Humidity 0    
Precipitation  
Precipitation 0.09 in 0.04 in 0.60 in (1951)
Month to date precipitation 1.42 0.58  
Year to date precipitation 24.93 18.84  
Snow  
Snow 0.70 in 0.40 in 6.00 in (1951)
Month to date snowfall 1.6 4.6  
Since 1 July snowfall 16.1 14.4  
Snow Depth 1.00 in    
Sea Level Pressure  
Sea Level Pressure 29.46 in    
Wind  
Wind Speed 9 mph (SW)    
Max Wind Speed 25 mph    
Max Gust Speed 35 mph    
Visibility 6 miles    
Events Fog , Snow    
T = Trace of Precipitation, MM = Missing Value Source: NWS Daily Summary

Daily Weather History Graph

Daily Weather History Graph

Search for Another Location

Airport or City:

Trip Planner

Search our weather history database for the weather conditions in past years. The results will help you decide how hot, cold, wet, or windy it might be!

Date:

Astronomy

Dec. 13, 2012 Rise Set
Actual Time 10:10 AM AKST 4:31 PM AKST
Civil Twilight 9:17 AM AKST 5:24 PM AKST
Nautical Twilight 8:23 AM AKST 6:18 PM AKST
Astronomical Twilight 7:34 AM AKST 7:07 PM AKST
Moon 10:23 AM AKST (12/13) 5:35 PM AKST (12/13)
Length of Visible Light 8h 07m
Length of Day
6h 20m
New Moon, 0% of the Moon is Illuminated
Dec 13
New Moon
Dec 19
First Quarter
Dec 28
Full
Jan 4
Last Quarter
Jan 11
New

Hourly Weather History & Observations

Time (AKST) Temp. Windchill Dew Point Humidity Pressure Visibility Wind Dir Wind Speed Gust Speed Precip Events Conditions
12:54 AM 34.0 °F 22.7 °F 32.0 °F 92% 29.51 in 8.0 mi WSW 19.6 mph 28.8 mph 0.00 in   Mostly Cloudy
1:25 AM 33.8 °F 22.5 °F 32.0 °F 93% 29.51 in 8.0 mi SW 19.6 mph 32.2 mph 0.00 in   Overcast
1:52 AM 33.8 °F 21.9 °F 32.0 °F 93% 29.51 in 8.0 mi WSW 21.9 mph 28.8 mph 0.00 in   Overcast
1:54 AM 34.0 °F 23.0 °F 32.0 °F 92% 29.52 in 8.0 mi WSW 18.4 mph 28.8 mph 0.00 in   Overcast
2:46 AM 35.6 °F 24.5 °F 33.8 °F 93% 29.52 in 8.0 mi WSW 20.7 mph 27.6 mph N/A   Overcast
2:54 AM 35.1 °F 24.1 °F 33.1 °F 92% 29.52 in 8.0 mi SW 19.6 mph 27.6 mph N/A   Overcast
3:50 AM 33.8 °F 24.3 °F 33.8 °F 100% 29.52 in 8.0 mi SW 13.8 mph 23.0 mph N/A   Overcast
3:54 AM 34.0 °F 24.2 °F 33.1 °F 96% 29.52 in 8.0 mi SW 15.0 mph 23.0 mph N/A   Overcast
4:54 AM 34.0 °F 24.6 °F 33.1 °F 96% 29.51 in 7.0 mi SW 13.8 mph - N/A   Overcast
4:57 AM 33.8 °F 23.9 °F 33.8 °F 100% 29.51 in 7.0 mi SW 15.0 mph - N/A   Overcast
5:07 AM 33.8 °F 24.8 °F 33.8 °F 100% 29.51 in 7.0 mi SW 12.7 mph - N/A   Overcast
5:54 AM 35.1 °F 25.9 °F 34.0 °F 96% 29.50 in 6.0 mi SSW 13.8 mph - 0.00 in Snow Light Snow
6:07 AM 33.8 °F 25.3 °F 33.8 °F 100% 29.49 in 2.5 mi SSW 11.5 mph - 0.01 in Snow Light Snow
6:37 AM 33.8 °F 24.8 °F 33.8 °F 100% 29.49 in 2.0 mi SW 12.7 mph 20.7 mph 0.04 in Snow Light Snow
6:47 AM 33.8 °F 24.3 °F 33.8 °F 100% 29.49 in 4.0 mi SW 13.8 mph - 0.04 in Snow Light Snow
6:54 AM 33.1 °F 24.9 °F 33.1 °F 100% 29.49 in 4.0 mi SW 10.4 mph - 0.05 in Snow Light Snow
7:22 AM 33.8 °F 26.4 °F 33.8 °F 100% 29.48 in 1.8 mi SSW 9.2 mph - 0.00 in Snow Light Snow
7:35 AM 33.8 °F 27.0 °F 33.8 °F 100% 29.48 in 2.5 mi SW 8.1 mph - 0.01 in Snow Light Snow
7:54 AM 33.1 °F 26.1 °F 33.1 °F 100% 29.49 in 1.5 mi SSW 8.1 mph - 0.03 in Snow Light Snow
8:04 AM 33.8 °F 27.0 °F 33.8 °F 100% 29.48 in 3.0 mi SW 8.1 mph - 0.00 in Snow Light Snow
8:12 AM 33.8 °F 27.0 °F 33.8 °F 100% 29.48 in 3.0 mi SW 8.1 mph - 0.00 in Snow Light Snow
8:20 AM 33.8 °F 27.0 °F 33.8 °F 100% 29.48 in 3.0 mi SSW 8.1 mph - 0.01 in Snow Light Snow
8:25 AM 33.8 °F 27.0 °F 33.8 °F 100% 29.48 in 2.5 mi SW 8.1 mph - 0.01 in Snow Light Snow
8:34 AM 33.8 °F 27.0 °F 33.8 °F 100% 29.48 in 4.0 mi SW 8.1 mph - 0.01 in Snow Light Snow
8:43 AM 33.8 °F 25.8 °F 33.8 °F 100% 29.48 in 9.0 mi SW 10.4 mph - 0.01 in Snow Light Snow
8:54 AM 33.1 °F 26.9 °F 33.1 °F 100% 29.49 in 9.0 mi WSW 6.9 mph - 0.01 in Snow Light Snow
9:22 AM 33.8 °F 24.3 °F 33.8 °F 100% 29.49 in 10.0 mi WSW 13.8 mph - N/A   Overcast
9:54 AM 32.0 °F 22.1 °F 32.0 °F 100% 29.49 in 6.0 mi West 13.8 mph 20.7 mph N/A   Overcast
10:54 AM 33.1 °F 24.4 °F 32.0 °F 96% 29.49 in 10.0 mi SW 11.5 mph - N/A   Overcast
11:38 AM 33.8 °F 26.4 °F 32.0 °F 93% 29.49 in 2.5 mi SW 9.2 mph - 0.00 in Snow Light Snow
11:49 AM 33.8 °F 27.0 °F 32.0 °F 93% 29.49 in 6.0 mi SSW 8.1 mph - 0.00 in   Overcast
11:50 AM 33.8 °F 27.0 °F 32.0 °F 93% 29.49 in 6.0 mi SSW 8.1 mph - 0.00 in   Overcast
11:54 AM 33.1 °F 26.1 °F 32.0 °F 96% 29.50 in 2.5 mi SSW 8.1 mph - 0.00 in Snow Light Snow
12:08 PM 33.8 °F 27.0 °F 32.0 °F 93% 29.50 in 3.0 mi SSW 8.1 mph - 0.00 in Snow Light Snow
12:54 PM 33.1 °F 25.5 °F 32.0 °F 96% 29.48 in 8.0 mi SSW 9.2 mph - 0.00 in   Overcast
2:54 PM 33.8 °F 25.3 °F 33.8 °F 100% 29.42 in 7.0 mi SSW 11.5 mph - N/A   Overcast
3:26 PM 33.8 °F 27.0 °F 32.0 °F 93% 29.41 in 7.0 mi SSW 8.1 mph - N/A   Overcast
3:54 PM 33.1 °F 26.9 °F 33.1 °F 100% 29.42 in 7.0 mi SSW 6.9 mph - N/A   Overcast
4:54 PM 33.1 °F 26.1 °F 32.0 °F 96% 29.40 in 10.0 mi South 8.1 mph - N/A   Overcast
5:51 PM 33.8 °F 28.6 °F 32.0 °F 93% 29.38 in 7.0 mi SSW 5.8 mph - N/A   Overcast
5:54 PM 33.1 °F 27.7 °F 32.0 °F 96% 29.39 in 7.0 mi SW 5.8 mph - N/A   Overcast
6:54 PM 33.1 °F 27.7 °F 32.0 °F 96% 29.38 in 5.0 mi SW 5.8 mph - N/A   Overcast
7:54 PM 32.0 °F 25.6 °F 32.0 °F 100% 29.37 in 7.0 mi SSW 6.9 mph - 0.00 in   Overcast
8:54 PM 32.0 °F 28.7 °F 30.9 °F 96% 29.34 in 10.0 mi SW 3.5 mph - N/A   Overcast
9:54 PM 32.0 °F 28.7 °F 30.9 °F 96% 29.31 in 6.0 mi South 3.5 mph - N/A   Overcast
10:04 PM 30.2 °F 26.7 °F 30.2 °F 100% 29.31 in 7.0 mi SSW 3.5 mph - N/A   Overcast
10:54 PM 30.9 °F 27.5 °F 30.9 °F 100% 29.31 in 7.0 mi SW 3.5 mph - N/A   Overcast
11:38 PM 30.2 °F 25.4 °F 30.2 °F 100% 29.32 in 1.5 mi SW 4.6 mph - N/A   Mist
11:54 PM 30.9 °F 25.2 °F 30.9 °F 100% 29.32 in 0.5 mi WSW 5.8 mph - N/A Fog Light Freezing Fog